This demonstration page uses our WeatherBlox Daily Observations layout. Learn more.

Left ArrowRight Arrow

Hourly Observations for June 14, 2020

Temp ( °F °C ) Dew Point ( °F °C ) Humidity (%) Winds ( mph kmh ) Pressure ( in mb ) Visibility ( mi km ) Precip ( " mm )
12:53 am 00:53 Clear 76 24.4 42 5.6 30 30 SSE 8 13 29.91 1013 10 16 0.00 0.00
1:53 am 01:53 Clear 74 23.3 43 6.1 33 33 SE 10 17 29.90 1013 10 16 0.00 0.00
2:53 am 02:53 Clear 73 22.8 43 6.1 34 34 SE 12 19 29.90 1013 10 16 0.00 0.00
3:53 am 03:53 Clear 71 21.7 44 6.7 38 38 SE 13 20 29.90 1012 10 16 0.00 0.00
4:53 am 04:53 Clear 70 21.1 45 7.2 41 41 SE 10 17 29.90 1012 10 16 0.00 0.00
5:53 am 05:53 Clear 67 19.4 44 6.7 44 44 SE 7 11 29.92 1013 10 16 0.00 0.00
6:53 am 06:53 Sunny 68 20 45 7.2 44 44 SE 10 17 29.93 1014 10 16 0.00 0.00
7:53 am 07:53 Sunny 70 21.1 45 7.2 41 41 SE 9 15 29.96 1015 10 16 0.00 0.00
8:53 am 08:53 Sunny 74 23.3 47 8.3 38 38 SSE 15 24 29.97 1015 10 16 0.00 0.00
10:53 am 10:53 undefined 84 28.9 44 6.7 25 25 SSE 20 31 29.97 1015 10 16 0.00 0.00
11:53 am 11:53 Sunny 87 30.6 44 6.7 22 22 SE 20 31 29.97 1015 10 16 0.00 0.00
12:53 pm 12:53 Sunny 90 32.2 43 6.1 19 19 SE 20 31 29.95 1014 10 16 0.00 0.00
1:53 pm 13:53 Sunny 91 32.8 44 6.7 20 20 SE 14 22 29.93 1014 10 16 0.00 0.00
2:53 pm 14:53 Sunny 92 33.3 43 6.1 18 18 SSE 14 22 29.91 1013 10 16 0.00 0.00
3:53 pm 15:53 Sunny 93 33.9 43 6.1 18 18 SE 21 33 29.90 1013 10 16 0.00 0.00
4:53 pm 16:53 Sunny 92 33.3 43 6.1 18 18 ESE 13 20 29.88 1012 10 16 0.00 0.00
5:53 pm 17:53 Sunny 94 34.4 41 5 16 16 SE 16 26 29.86 1011 10 16 0.00 0.00
6:53 pm 18:53 Sunny 92 33.3 41 5 17 17 SE 13 20 29.86 1011 10 16 0.00 0.00
7:53 pm 19:53 Sunny 90 32.2 40 4.4 17 17 SSE 17 28 29.88 1012 10 16 0.00 0.00
8:53 pm 20:53 Sunny 87 30.6 41 5 20 20 SE 13 20 29.89 1012 10 16 0.00 0.00
9:53 pm 21:53 Clear 83 28.3 40 4.4 22 22 SE 10 17 29.85 1011 10 16 0.00 0.00
10:53 pm 22:53 Clear 78 25.6 40 4.4 26 26 SE 7 11 29.92 1013 10 16 0.00 0.00
11:53 pm 23:53 Clear 76 24.4 41 5 29 29 SE 9 15 29.93 1014 10 16 0.00 0.00

Powered by AerisWeather